www.pogodaiklimat.ru

Погода и климат >> Архив погоды >> Украина >> Харьков


АРХИВ ПОГОДЫ в Харькове

Время (UTC), дата Ветер
(напр.,м/с)
 
Видим.   Явления Облачность Т
(С)
Тd
(С)
f
(%)
Тe
(С)
Тes
(С)
Комфортность P
(гПа)
Po
(гПа)
Тmin
(С)
Tmax
(С)
R
(мм)
R24
(мм)
S
(см)
03 14.10 Ю 2 10 км слабый ливневой дождь 8/6 600 м
[Cb cap Ac trans]
+6.8 +5.7 93 +4 +4 по сезону 1011.0 992.2
06 14.10 З 4 7000 м слабый ливневой дождь 10/10 210 м
[Cb cap]
+8.2 +6.9 92 +5 +5 по сезону 1011.3 992.6 +6.5 0.3
09 14.10 З 5 10 км {ливн. осадки} 9/9 600 м
[Cb cap]
+10.7 +6.7 76 +8 +8 по сезону 1011.1 992.5
12 14.10 З 6 10 км слабый ливневой дождь 9/9 720 м
[Cb cap]
+11.8 +7.3 74 +9 +9 по сезону 1010.0 991.5
15 14.10 СЗ 3 10 км в посл. час ливневой дождь 8/5 600 м
[Cb cap Ac trans]
+7.6 +6.1 90 +5 +5 прохладно 1011.5 992.7
18 14.10 СЗ 4 10 км {ливн. осадки} 9/8 600 м
[Sc Ac trans]
+7.1 +4.3 82 +4 +4 по сезону 1014.0 995.1 +12.0 2
21 14.10 З 3 10 км 8/5 1000 м
[Sc Ac trans]
+6.3 +4.0 85 +3 +3 по сезону 1014.7 995.8
00 15.10 З 2 10 км 10/10 1170 м
[Sc]
+6.0 +2.6 79 +4 +4 по сезону 1015.2 996.2
03 15.10 З 2 10 км 6/0
[Ac trans]
+4.0 +2.0 87 +1 +1 по сезону 1015.0 995.8
06 15.10 ЮЗ 4 10 км 9/0
[Ac trans]
+5.7 +4.3 91 +2 +2 по сезону 1014.0 995.0 +3.0
09 15.10 ЮЗ 6 6000 м слабый дождь 10/10 180 м
[Sc]
+7.4 +6.5 94 +3 +3 прохладно 1011.2 992.4
12 15.10 З 5 10 км {дождь} 10/8 210 м
[Frnb As op]
+10.3 +9.3 94 +7 +7 прохладно 1008.1 989.6
15 15.10 З 8 10 км в посл. час ливневой дождь 9/8 600 м
[Cb cap Ac trans]
+11.3 +8.3 82 +8 +8 по сезону 1006.4 988.0
18 15.10 З 6 10 км {ливн. осадки} 3/0
[Ac trans]
+10.5 +7.6 82 +7 +7 по сезону 1007.4 988.9 +12.0 1
21 15.10 СЗ 8 10 км 3/3 1000 м
[Sc]
+9.7 +3.0 63 +6 +6 по сезону 1010.0 991.4
00 16.10 СЗ 5 10 км ясно +7.5 +2.5 71 +4 +4 по сезону 1012.4 993.6
03 16.10 СЗ 7 10 км 9/9 870 м
[Sc]
+6.8 +1.9 71 +2 +2 по сезону 1015.3 996.4
06 16.10 СЗ 6 10 км 8/8 1000 м
[Sc]
+6.9 +1.7 69 +3 +3 по сезону 1017.0 998.0 +5.4
09 16.10 СЗ 7 10 км 9/9 600 м
[Sc]
+9.4 +2.0 60 +6 +6 по сезону 1017.8 999.0
12 16.10 СЗ 8 10 км 8/6 1000 м
[Cu med, cong Ci fib]
+10.7 +1.7 54 +7 +8 прохладно 1017.9 999.2
15 16.10 СЗ 3 10 км 8/5 1000 м
[Sc diur, vesp Ac trans]
+10.2 +3.9 65 +8 +8 по сезону 1018.5 999.7
18 16.10 СЗ 4 10 км 9/0
[Ac trans]
+9.4 +6.2 80 +7 +7 по сезону 1019.2 1000.4 +11.3
21 16.10 З 3 10 км 10/0
[Ac und]
+8.8 +6.4 85 +6 +6 по сезону 1019.1 1000.3
00 17.10 ЮЗ 2 7000 м дымка 3/0
[Ac trans]
+5.6 +4.4 92 +3 +3 по сезону 1018.5 999.4
03 17.10 З 2 10 км 9/8 840 м
[Sc Ac trans]
+6.8 +5.7 93 +4 +4 по сезону 1017.1 998.2
06 17.10 З 2 10 км 9/9 1020 м
[Sc]
+9.7 +8.0 89 +8 +8 тепло 1017.2 998.5 +5.2
09 17.10 З 3 10 км слабый дождь 10/10 360 м
[Sc]
+12.8 +9.9 83 +11 +11 тепло 1017.6 999.1
12 17.10 З 3 10 км {дождь} 9/9 400 м
[Sc]
+14.4 +11.0 80 +13 +14 тепло 1017.8 999.4
15 17.10 З 2 10 км 6/5 600 м
[Sc Ci fib]
+13.3 +10.6 84 +13 +13 тепло 1018.9 1000.4
18 17.10 З 2 3200 м дымка 4/0
[Ac trans]
+10.7 +9.9 95 +9 +9 тепло 1020.6 1001.9 +14.6 0.0
21 17.10 З 2 2900 м дымка ясно +8.8 +8.2 96 +7 +7 по сезону 1021.5 1002.6
00 18.10 З 1 1600 м дымка ясно +7.2 +6.8 97 +6 +6 по сезону 1022.4 1003.4
03 18.10 штиль 0 100 м туман ясно +5.8 +5.8 100 +5 +5 по сезону 1022.4 1003.3
06 18.10 Ю 2 3600 м дымка {туман} ясно +8.1 +7.7 97 +6 +7 по сезону 1021.9 1003.0 +2.9
09 18.10 ЮЗ 5 10 км ясно +15.3 +9.9 70 +14 +17 тепло 1020.6 1002.2
12 18.10 ЮЗ 6 10 км 6/0
[Ci fib]
+17.8 +9.9 60 +17 +18 тепло 1018.7 1000.5
15 18.10 ЮЗ 3 10 км 4/0
[Ci fib]
+14.5 +10.3 76 +14 +14 тепло 1018.1 999.7
18 18.10 Ю 3 10 км 4/0
[Ci fib]
+12.3 +10.2 87 +11 +11 тепло 1018.0 999.4 +18.1
21 18.10 ЮЗ 3 10 км ясно +11.2 +9.6 90 +9 +9 тепло 1017.6 999.0
00 19.10 ЮЗ 3 5000 м дымка ясно +9.9 +8.7 92 +8 +8 тепло 1017.1 998.4
03 19.10 ЮЗ 3 3200 м дымка ясно +9.0 +8.4 96 +6 +6 тепло 1016.3 997.5
06 19.10 ЮЗ 3 400 м туман ?/? +10.2 +10.2 100 +8 +8 тепло 1016.9 998.2 +8.0
09 19.10 ЮЗ 3 2300 м в посл. час туман 10/10 90 м
[St]
+11.5 +11.1 97 +10 +10 тепло 1016.9 998.3
12 19.10 З 2 2700 м дымка {туман} 10/10 150 м
[St]
+12.2 +10.9 92 +11 +11 тепло 1017.2 998.6
15 19.10 З 2 3200 м дымка 10/10 210 м
[St]
+12.6 +11.5 93 +12 +12 тепло 1017.3 998.8
18 19.10 штиль 0 2500 м дымка 10/10 150 м
[St]
+12.0 +11.0 94 +11 +11 тепло 1017.9 999.3 +13.0
21 19.10 штиль 0 4200 м дымка 9/9 400 м
[St]
+11.5 +10.5 94 +11 +11 тепло 1018.1 999.5
00 20.10 СВ 2 3300 м дымка 6/4 300 м
[St Ac trans]
+9.1 +8.3 95 +7 +7 тепло 1017.9 999.1
03 20.10 СВ 2 3400 м дымка 10/10 300 м
[Sc]
+10.9 +9.9 94 +9 +9 тепло 1018.1 999.4
06 20.10 СВ 2 4600 м дымка 10/10 240 м
[Sc]
+11.2 +10.2 94 +10 +10 тепло 1018.9 1000.2 +8.4
09 20.10 СВ 3 10 км 10/10 420 м
[Sc]
+13.1 +9.6 79 +12 +12 тепло 1019.4 1000.8
12 20.10 С 3 10 км 9/9 660 м
[Sc]
+13.2 +9.7 79 +12 +12 тепло 1019.1 1000.6
15 20.10 СВ 4 10 км 9/9 800 м
[Sc]
+11.4 +6.8 73 +9 +9 по сезону 1019.8 1001.1
18 20.10 СВ 4 10 км 9/9 930 м
[Sc]
+10.4 +4.9 69 +8 +8 тепло 1020.3 1001.5 +13.5
21 20.10 СВ 3 10 км 10/10 1000 м
[Sc]
+9.8 +4.7 71 +8 +8 тепло 1020.1 1001.3
00 21.10 С 3 10 км 10/10 1110 м
[Sc]
+7.8 +2.8 71 +5 +5 по сезону 1020.0 1001.1

 

Местоположение метеостанции Харьков (Харьковская область, Украина): широта 49.97 долгота 36.13 высота над уровнем моря 155 м.

В архиве по умолчанию представлена погода в Харькове за последнюю неделю. Архивные данные за месяц целиком и за предыдущие месяцы, начиная с января 2011 года, Вы можете получить, выбрав интересующий диапазон дат из раскрывающегося списка и нажав кнопку "Ввод!".

Внимание! Время в таблицах - всемирное. Для получения местного времени необходимо прибавить поправку, которая в Харькове равна 2 ч.

Смотрите также архив погоды в соседних городах и на ближайших метеорологических станциях:

Погода в Золочеве (Львовская область, Украина) (39 км)
Погода в Боходухове (Харьковская область, Украина) (50 км)
Погода в Слобожанском (Донецкая область, Украина) (50 км)
Погода в Коломаке (Харьковская область, Украина) (66 км)
Погода в Белгороде (Белгородская область, Россия) (80 км)
Погода в Краснограде (Харьковская область, Украина) (82 км)
Погода в Великом Бурлуке (Харьковская область, Украина) (90 км)
Погода в Готне (Белгородская область, Россия) (96 км)
Погода в Купянске (Харьковская область, Украина) (119 км)
Погода в Лозовой (Харьковская область, Украина) (120 км)

Пояснения к столбцам:

Ветер - указаны скорость ветра в м/с - средняя за 10 мин, порывы в срок и между сроками (в фигурных скобках) и направление, откуда дует ветер: С - северный, СВ - северо-восточный, В - восточный, ЮВ - юго-восточный, Ю - южный, ЮЗ - юго-западный, З - западный, СЗ - северо-западный.
Видимость - горизонтальная дальность видимости в метрах или километрах. При видимости от 1 до 10 км при отсутствии осадков обычно наблюдается дымка, при ухудшении видимости до 1 км и менее - туман. В сухую погоду видимость может ухудшаться дымом, пылью или мглою.
Явления - указаны атмосферные явления, наблюдавшиеся в срок или в последний час перед сроком; фигурными скобками обозначены явления, наблюдавшиеся между сроками (за 1-3 часа до срока); квадратными скобками обозначены град или гололедные отложения с указанием их диаметра в мм.
Облачность - указаны через наклонную черту общая и нижняя облачность в баллах и высота нижней границы облаков в метрах; квадратными скобками обозначены формы облаков: Ci - перистые, Cs - перисто-слоистые, Cc - перисто-кучевые, Ac - высококучевые, As - высокослоистые, Sc - слоисто-кучевые, Ns - слоисто-дождевые, Cu - кучевые, Cb - кучево-дождевые. Подробнее классификацию облаков см. в Атласе облаков (PDF).
T - Температура воздуха - температура, измеренная на высоте 2 м над землей.
Td - Температура точки росы - температура, при понижении до которой содержащийся в воздухе водяной пар достигнет насыщения.
f - Относительная влажность воздуха - влажноcть воздуха, измеренная на высоте 2 м над землей.
Te - Эффективная температура - температура, которую ощущает одетый по сезону человек в тени. Характеристика душности погоды. При расчете учитывается влияние влажности воздуха и скорости ветра на теплоощущения человека.
Tes - Эффективная температура на солнце - температура, которую ощущает человек, с поправкой на солнечный нагрев. Характеристика знойности погоды. Зависит от высоты солнца над горизонтом, облачности и скорости ветра. Ночью, в пасмурную погоду, а также при ветре 12 м/с и более поправка равна нулю.
P - Атмосферное давление - приведенное к уровню моря атмосферное давление.
Po - Атмосферное давление - измеренное на уровне метеостанции атмосферное давление.
Tmin - Минимальная температура - минимум температуры воздуха на высоте 2 м над землей.
Tmax - Максимальная температура - максимум температуры воздуха на высоте 2 м над землей.
R - Количество осадков - Количество выпавших осадков за период времени, мм. При наведении курсора мыши на число - период времени, за который выпало указанное количество осадков.
R24 - Количество осадков - Количество выпавших осадков за 24 часа, мм.
S - Снежный покров - Высота снежного покрова, см. При наведении курсора мыши на число - состояние снежного покрова и степень покрытия местности в баллах.